Location: Unspecified
(0.0000°N, 0.0000°E)
Time: 00:24:28
(UTC+00:00)

deb Delta 104 - Pass Details

Date: 08 March 2026
Orbit: 1339 x 1585 km, 100.8° (Epoch: 14 April)

Event Time Altitude Azimuth Distance (km) Brightness Sun altitude
Exits shadow 21:45:19 17° 209° (SSW) 3,261 ? -53.4°
Drops below altitude 10° 21:46:55 10° 206° (SSW) 3,783 ? -53.8°
Sets 21:49:53 0° 203° (SSW) 4,776 ? -54.5°
